Location: Unspecified
(0.0000°N, 0.0000°E)
Time: 01:20:40
(UTC+00:00)

STARLINK-1037 - Pass Details

Date: 07 December 2020
Orbit: 544 x 546 km, 53.0° (Epoch: 16 January)

Event Time Altitude Azimuth Distance (km) Brightness Sun altitude
Rises 18:17:51 0° 331° (NNW) 2,692 7.2 -6.0°
Reaches altitude 10° 18:20:05 10° 334° (NNW) 1,802 6.3 -6.5°
Maximum altitude 18:24:09 66° 56° (NE) 593 3.5 -7.5°
Drops below altitude 10° 18:28:13 10° 139° (SE) 1,807 6.1 -8.4°
Sets 18:30:28 0° 141° (SE) 2,701 7.0 -8.9°
